Вернуться в каталог

STARLINK-30711

АктивенСвязьVLEO
NORAD 57940·PAYLOAD·🇺🇸 United States

Запущен Sep 25, 2023 с Vandenberg Space Force Base

Loading…

Ближайшие Пролёты (ближайшие 24 часа)

TLE

СвежийSource: CelesTrak SupGP

Эпоха: Sep 15, 2026, 01:55 UTC

1 57940C 23148F   26258.08034722 -.00045555  00000+0 -13458-2 0  2588
2 57940  53.1582 222.9047 0001403  93.3310 191.6405 15.34416348    10

Отслеживайте STARLINK-30711 в реальном времени с AllMySat

Download on the App Store